Weather History for KEVW - June, 2013

Change the Weather History Date:

Wednesday, June 26, 2013

  Actual Average Record
Temperature  
Mean Temperature 68 °F 61 °F  
Max Temperature 83 °F 75 °F 85 °F (2007)
Min Temperature 53 °F 48 °F 39 °F (2003)
Degree Days  
Heating Degree Days 0 4  
Month to date heating degree days 133 216  
Since 1 June heating degree days 133 216  
Since 1 July heating degree days 8024 8558  
Cooling Degree Days 3 1  
Month to date cooling degree days 13 4  
Year to date cooling degree days 13 5  
Since 1 June cooling degree days 13 4  
Growing Degree Days 18 (Base 50)    
Moisture  
Dew Point 40 °F    
Average Humidity 37    
Maximum Humidity 54    
Minimum Humidity 20    
Precipitation  
Precipitation 0.00 in 0.03 in 0.13 in (2004)
Month to date precipitation T 1.12  
Year to date precipitation 2.01 6.05  
Sea Level Pressure  
Sea Level Pressure 29.97 in    
Wind  
Wind Speed 12 mph (WSW)    
Max Wind Speed 27 mph    
Max Gust Speed 35 mph    
Visibility 10 miles    
Events      
T = Trace of Precipitation, MM = Missing Value Source: NWS Daily Summary

Daily Weather History Graph

Daily Weather History Graph

Search for Another Location

Airport or City:

Trip Planner

Search our weather history database for the weather conditions in past years. The results will help you decide how hot, cold, wet, or windy it might be!

Date:

Astronomy

Jun. 26, 2013 Rise Set
Actual Time 5:52 AM MDT 9:01 PM MDT
Civil Twilight 5:18 AM MDT 9:35 PM MDT
Nautical Twilight 4:35 AM MDT 10:18 PM MDT
Astronomical Twilight 3:44 AM MDT 11:09 PM MDT
Moon 11:23 PM MDT (6/26) 9:51 AM MDT (6/26)
Length of Visible Light 16h 16m
Length of Day
15h 08m
Waning Gibbous, 85% of the Moon is Illuminated
Jun 26
Waning Gibbous
Jun 29
Last Quarter
Jul 8
New
Jul 15
First Quarter
Jul 22
Full

Hourly Weather History & Observations

Time (MDT) Temp. Dew Point Humidity Pressure Visibility Wind Dir Wind Speed Gust Speed Precip Events Conditions
12:53 AM 57.0 °F 37.9 °F 49% 29.90 in 10.0 mi SE 3.5 mph - N/A   Clear
1:53 AM 55.0 °F 37.9 °F 53% 29.89 in 10.0 mi SSE 4.6 mph - N/A   Clear
2:53 AM 55.0 °F 37.0 °F 51% 29.89 in 10.0 mi Calm Calm - N/A   Clear
3:53 AM 59.0 °F 36.0 °F 42% 29.88 in 10.0 mi Calm Calm - N/A   Clear
4:53 AM 55.0 °F 37.0 °F 51% 29.91 in 10.0 mi WSW 8.1 mph - N/A   Clear
5:53 AM 54.0 °F 37.0 °F 53% 29.94 in 10.0 mi Calm Calm - N/A   Clear
6:53 AM 55.0 °F 39.0 °F 55% 29.96 in 10.0 mi WSW 8.1 mph - N/A   Clear
7:53 AM 62.1 °F 39.0 °F 43% 29.96 in 10.0 mi WSW 10.4 mph - N/A   Clear
8:53 AM 69.1 °F 41.0 °F 36% 29.97 in 10.0 mi WSW 12.7 mph - N/A   Clear
9:53 AM 72.0 °F 42.1 °F 34% 29.97 in 10.0 mi SW 17.3 mph 21.9 mph N/A   Clear
10:53 AM 73.9 °F 43.0 °F 33% 29.99 in 10.0 mi SW 18.4 mph 23.0 mph N/A   Clear
11:53 AM 77.0 °F 41.0 °F 28% 29.98 in 10.0 mi West 17.3 mph 27.6 mph N/A   Clear
12:53 PM 80.1 °F 41.0 °F 25% 29.99 in 10.0 mi WSW 21.9 mph 29.9 mph N/A   Clear
1:53 PM 81.0 °F 39.9 °F 23% 29.99 in 10.0 mi WSW 21.9 mph 29.9 mph N/A   Clear
2:53 PM 82.0 °F 37.9 °F 21% 29.99 in 10.0 mi West 25.3 mph 35.7 mph N/A   Partly Cloudy
3:53 PM 82.0 °F 39.9 °F 22% 29.97 in 10.0 mi West 18.4 mph 31.1 mph N/A   Clear
4:53 PM 82.0 °F 41.0 °F 23% 29.98 in 10.0 mi West 21.9 mph 32.2 mph N/A   Clear
5:53 PM 80.1 °F 44.1 °F 28% 30.00 in 10.0 mi West 19.6 mph 29.9 mph N/A   Clear
6:53 PM 80.1 °F 43.0 °F 27% 30.00 in 10.0 mi West 20.7 mph - N/A   Clear
7:53 PM 77.0 °F 43.0 °F 30% 29.99 in 10.0 mi West 17.3 mph - N/A   Clear
8:53 PM 71.1 °F 42.1 °F 35% 30.00 in 10.0 mi WNW 10.4 mph - N/A   Clear
9:53 PM 70.0 °F 41.0 °F 35% 30.01 in 10.0 mi WNW 9.2 mph - N/A   Clear
10:53 PM 69.1 °F 42.1 °F 38% 30.03 in 10.0 mi South 5.8 mph - N/A   Clear
11:53 PM 64.0 °F 42.1 °F 45% 30.04 in 10.0 mi East 6.9 mph - N/A   Clear